Tullahoma, TN

10:00 PM CDT on September 26, 2016 (GMT -0500)
Tullahoma Regional-Northern

Weather History for KTHA - October, 2012

Change the Weather History Date:

Saturday, October 20, 2012

  Actual Average Record
Temperature  
Mean Temperature 48 °F -  
Max Temperature 60 °F 69 °F 69 °F (2015)
Min Temperature 37 °F 43 °F 30 °F (2013)
Degree Days  
Heating Degree Days 16    
Moisture  
Dew Point 42 °F    
Average Humidity 76    
Maximum Humidity 100    
Minimum Humidity 52    
Precipitation  
Precipitation 0.00 in - - ()
Sea Level Pressure  
Sea Level Pressure 29.95 in    
Wind  
Wind Speed 2 mph ()    
Max Wind Speed 13 mph    
Max Gust Speed -    
Visibility 10.0 miles    
Events      
Averages and records for this station are not official NWS values.
T = Trace of Precipitation, MM = Missing Value Source: Averaged Metar Reports

Daily Weather History Graph

Daily Weather History Graph

Search for Another Location

Airport or City:

Trip Planner

Search our weather history database for the weather conditions in past years. The results will help you decide how hot, cold, wet, or windy it might be!

Date:

Astronomy

Oct. 20, 2012 Rise Set
Actual Time 6:55 AM CDT 6:02 PM CDT
Civil Twilight 6:30 AM CDT 6:28 PM CDT
Nautical Twilight 6:00 AM CDT 6:58 PM CDT
Astronomical Twilight 5:31 AM CDT 7:27 PM CDT
Moon 12:25 PM CDT (10/20) 10:53 PM CDT (10/20)
Length of Visible Light 11h 58m
Length of Day
11h 06m
Waxing Crescent, 34% of the Moon is Illuminated
Oct 20
Waxing Crescent
Oct 21
First Quarter
Oct 29
Full
Nov 6
Last Quarter
Nov 13
New

Hourly Weather History & Observations

Time (CDT) Temp. Windchill Dew Point Humidity Pressure Visibility Wind Dir Wind Speed Gust Speed Precip Events Conditions
12:15 AM 53.6 °F - 42.8 °F 67% 29.86 in 10.0 mi Calm Calm - N/A   Overcast
12:35 AM 51.8 °F - 42.8 °F 71% 29.86 in 10.0 mi Calm Calm - N/A   Overcast
12:55 AM 51.8 °F - 44.6 °F 76% 29.86 in 10.0 mi Calm Calm - N/A   Overcast
1:15 AM 50.0 °F - 44.6 °F 82% 29.86 in 10.0 mi Calm Calm - N/A   Mostly Cloudy
1:55 AM 46.4 °F - 42.8 °F 87% 29.87 in 10.0 mi Calm Calm - N/A   Clear
2:15 AM 44.6 °F - 41.0 °F 87% 29.87 in 10.0 mi Calm Calm - N/A   Clear
2:35 AM 42.8 °F - 39.2 °F 87% 29.87 in 10.0 mi Calm Calm - N/A   Clear
2:55 AM 42.8 °F - 39.2 °F 87% 29.87 in 10.0 mi Calm Calm - N/A   Clear
3:15 AM 42.8 °F - 39.2 °F 87% 29.87 in 10.0 mi Calm Calm - N/A   Clear
3:55 AM 41.0 °F 39.0 °F 39.2 °F 93% 29.88 in 10.0 mi NW 3.5 mph - N/A   Clear
4:15 AM 41.0 °F - 37.4 °F 87% 29.88 in 10.0 mi Calm Calm - N/A   Clear
4:55 AM 39.2 °F - 37.4 °F 93% 29.89 in 10.0 mi Calm Calm - N/A   Clear
5:15 AM 39.2 °F - 37.4 °F 93% 29.90 in 10.0 mi Calm Calm - N/A   Clear
5:35 AM 37.4 °F - 35.6 °F 93% 29.90 in 10.0 mi Calm Calm - N/A   Clear
5:55 AM 37.4 °F - 37.4 °F 100% 29.91 in 10.0 mi Calm Calm - N/A   Clear
6:15 AM 39.2 °F - 37.4 °F 93% 29.91 in 10.0 mi Calm Calm - N/A   Clear
6:35 AM 37.4 °F - 35.6 °F 93% 29.92 in 10.0 mi Calm Calm - N/A   Clear
6:55 AM 37.4 °F - 35.6 °F 93% 29.92 in 10.0 mi Calm Calm - N/A   Clear
7:15 AM 39.2 °F - 37.4 °F 93% 29.93 in 10.0 mi Calm Calm - N/A   Clear
7:35 AM 39.2 °F - 37.4 °F 93% 29.93 in 10.0 mi Calm Calm - N/A   Clear
7:55 AM 42.8 °F - 39.2 °F 87% 29.94 in 10.0 mi Calm Calm - N/A   Clear
8:15 AM 46.4 °F - 42.8 °F 87% 29.95 in 10.0 mi Calm Calm - N/A   Clear
8:35 AM 50.0 °F - 42.8 °F 76% 29.95 in 10.0 mi West 5.8 mph - N/A   Clear
8:55 AM 51.8 °F - 44.6 °F 76% 29.96 in 10.0 mi WSW 8.1 mph - N/A   Clear
9:15 AM 53.6 °F - 42.8 °F 67% 29.97 in 10.0 mi WNW 6.9 mph - N/A   Clear
9:35 AM 53.6 °F - 42.8 °F 67% 29.97 in 10.0 mi WNW 8.1 mph - N/A   Clear
9:55 AM 55.4 °F - 42.8 °F 63% 29.97 in 10.0 mi NW 9.2 mph - N/A   Clear
10:35 AM 57.2 °F - 42.8 °F 59% 29.98 in 9.0 mi WNW 9.2 mph - N/A   Scattered Clouds
11:15 AM 57.2 °F - 42.8 °F 59% 29.98 in 9.0 mi NW 8.1 mph - N/A   Scattered Clouds
11:35 AM 57.2 °F - 42.8 °F 59% 29.98 in 9.0 mi NW 11.5 mph - N/A   Partly Cloudy
11:55 AM 57.2 °F - 42.8 °F 59% 29.98 in 10.0 mi WNW 12.7 mph - N/A   Partly Cloudy
12:15 PM 57.2 °F - 42.8 °F 59% 29.97 in 10.0 mi NNW 10.4 mph - N/A   Clear
12:35 PM 57.2 °F - 42.8 °F 59% 29.97 in 10.0 mi NW 11.5 mph - N/A   Clear
12:55 PM 59.0 °F - 42.8 °F 55% 29.96 in 10.0 mi West 9.2 mph - N/A   Clear
1:15 PM 59.0 °F - 42.8 °F 55% 29.97 in 10.0 mi WNW 10.4 mph - N/A   Partly Cloudy
1:35 PM 59.0 °F - 42.8 °F 55% 29.96 in 10.0 mi WNW 10.4 mph - N/A   Partly Cloudy
1:55 PM 60.8 °F - 44.6 °F 55% 29.96 in 10.0 mi NW 10.4 mph - N/A   Partly Cloudy
2:15 PM 59.0 °F - 42.8 °F 55% 29.96 in 10.0 mi NNW 9.2 mph - N/A   Clear
2:35 PM 59.0 °F - 42.8 °F 55% 29.95 in 10.0 mi NW 8.1 mph - N/A   Clear
2:55 PM 60.8 °F - 44.6 °F 55% 29.95 in 10.0 mi West 8.1 mph - N/A   Clear
3:15 PM 60.8 °F - 44.6 °F 55% 29.95 in 10.0 mi NW 11.5 mph - N/A   Clear
3:35 PM 60.8 °F - 42.8 °F 52% 29.95 in 10.0 mi NW 5.8 mph - N/A   Clear
3:55 PM 60.8 °F - 44.6 °F 55% 29.95 in 10.0 mi West 5.8 mph - N/A   Partly Cloudy
4:15 PM 60.8 °F - 44.6 °F 55% 29.96 in 10.0 mi NNW 6.9 mph - N/A   Partly Cloudy
4:35 PM 60.8 °F - 44.6 °F 55% 29.96 in 10.0 mi NW 6.9 mph - N/A   Partly Cloudy
4:55 PM 60.8 °F - 44.6 °F 55% 29.97 in 10.0 mi NNW 5.8 mph - N/A   Scattered Clouds
5:15 PM 59.0 °F - 44.6 °F 59% 29.97 in 10.0 mi North 4.6 mph - N/A   Partly Cloudy
5:35 PM 57.2 °F - 44.6 °F 63% 29.96 in 10.0 mi North 3.5 mph - N/A   Clear
5:55 PM 57.2 °F - 42.8 °F 59% 29.97 in 10.0 mi Calm Calm - N/A   Clear
6:15 PM 57.2 °F - 42.8 °F 59% 29.97 in 10.0 mi Calm Calm - N/A   Clear
6:35 PM 53.6 °F - 44.6 °F 72% 29.98 in 10.0 mi Calm Calm - N/A   Clear
6:55 PM 51.8 °F - 44.6 °F 76% 29.98 in 10.0 mi Calm Calm - N/A   Clear
7:15 PM 50.0 °F - 44.6 °F 82% 29.99 in 10.0 mi Calm Calm - N/A   Clear
7:35 PM 48.2 °F - 44.6 °F 87% 29.98 in 10.0 mi Calm Calm - N/A   Clear
7:55 PM 46.4 °F - 42.8 °F 87% 29.99 in 10.0 mi Calm Calm - N/A   Clear
8:15 PM 46.4 °F - 42.8 °F 87% 29.99 in 10.0 mi Calm Calm - N/A   Clear
8:35 PM 46.4 °F - 44.6 °F 93% 29.99 in 10.0 mi Calm Calm - N/A   Clear
8:55 PM 44.6 °F - 42.8 °F 93% 30.00 in 10.0 mi Calm Calm - N/A   Clear
9:35 PM 44.6 °F - 41.0 °F 87% 30.01 in 10.0 mi Calm Calm - N/A   Clear
9:55 PM 44.6 °F - 41.0 °F 87% 30.01 in 10.0 mi Calm Calm - N/A   Clear
10:15 PM 44.6 °F - 42.8 °F 93% 30.01 in 10.0 mi Calm Calm - N/A   Clear
10:35 PM 42.8 °F - 41.0 °F 93% 30.02 in 10.0 mi Calm Calm - N/A   Clear
10:55 PM 42.8 °F - 41.0 °F 93% 30.02 in 10.0 mi Calm Calm - N/A   Clear
11:15 PM 42.8 °F - 39.2 °F 87% 30.03 in 10.0 mi Calm Calm - N/A   Clear
11:35 PM 42.8 °F - 41.0 °F 93% 30.03 in 10.0 mi Calm Calm - N/A   Clear
11:55 PM 42.8 °F - 41.0 °F 93% 30.03 in 10.0 mi Calm Calm - N/A   Clear